User: anonymous   Login
Location: Bothwell
(42.3833°S, 147.0000°E)
Time: 04:46:46
(UTC+10:00)
Language:

MOZHAYETS 4 - Orbit

View from above orbital plane
View from above orbital plane
View from above satellite
View from above satellite

Ground track
Ground track

The orbit data is extracted from the following two-line orbital elements,

1 27939U 03042A   22267.06553358  .00000659  00000-0  12514-3 0  9999
2 27939  98.2056  47.8415 0011633 255.4359 104.5526 14.67474695 15505
Epoch (UTC): 24 September 2022 01:34:22
Eccentricity: 0.0011633
inclination: 98.2056°
perigee height: 661 km
apogee height: 677 km
right ascension of ascending node: 47.8415°
argument of perigee: 255.4359°
revolutions per day: 14.67474695
mean anomaly at epoch: 104.5526°
orbit number at epoch: 1550

The dashed part of the orbit path shows where the satellite is in the earth's shadow,  

DLR